Weather History for CWVU - February, 2013

Change the Weather History Date:

Sunday, February 10, 2013

  Actual Average Record
Temperature  
Mean Temperature 26 °F -  
Max Temperature 31 °F - - ()
Min Temperature 21 °F - - ()
Degree Days  
Heating Degree Days 39    
Moisture  
Dew Point 20 °F    
Average Humidity 76    
Maximum Humidity 96    
Minimum Humidity 49    
Precipitation  
Precipitation 0.00 in - - ()
Sea Level Pressure  
Sea Level Pressure 30.08 in    
Wind  
Wind Speed 34 mph ()    
Max Wind Speed 48 mph    
Max Gust Speed 59 mph    
T = Trace of Precipitation, MM = Missing Value Source: Averaged Metar Reports

Daily Weather History Graph

Daily Weather History Graph

Search for Another Location

Airport or City:

Trip Planner

Search our weather history database for the weather conditions in past years. The results will help you decide how hot, cold, wet, or windy it might be!

Date:

Astronomy

Feb. 10, 2013 Rise Set
Actual Time 7:31 AM AST 5:47 PM AST
Civil Twilight 7:01 AM AST 6:18 PM AST
Nautical Twilight 6:27 AM AST 6:52 PM AST
Astronomical Twilight 5:53 AM AST 7:26 PM AST
Moon 7:16 AM AST (2/10) 6:38 PM AST (2/10)
Length of Visible Light 11h 16m
Length of Day
10h 16m
New Moon, 0% of the Moon is Illuminated
Feb 10
New Moon
Feb 17
First Quarter
Feb 25
Full
Mar 4
Last Quarter
Mar 11
New

Hourly Weather History & Observations

Time (AST) Temp. Windchill Dew Point Humidity Pressure Visibility Wind Dir Wind Speed Gust Speed Precip Events Conditions
12:00 AM 22.8 °F 1.6 °F 21.9 °F 96% 29.77 in - NNW 48.3 mph 58.7 mph N/A   Unknown
1:00 AM 23.5 °F 2.8 °F 22.3 °F 95% 29.81 in - NNW 47.2 mph 57.5 mph N/A   Unknown
2:00 AM 23 °F - 22 °F 92% 29.83 in - NNW 43.7 mph - -  
2:00 AM 23.0 °F 2.6 °F 21.6 °F 94% 29.83 in - NNW 43.7 mph 55.2 mph N/A   Unknown
3:00 AM 22.6 °F 1.7 °F 19.9 °F 89% 29.86 in - NNW 46.0 mph 58.7 mph N/A   Unknown
4:00 AM 22.5 °F 1.9 °F 20.8 °F 93% 29.90 in - NNW 43.7 mph 54.1 mph N/A   Unknown
5:00 AM 22.1 °F 2.0 °F 19.4 °F 89% 29.95 in - NNW 40.3 mph 49.5 mph N/A   Unknown
6:00 AM 22.1 °F 2.2 °F 18.7 °F 87% 29.97 in - NNW 39.1 mph 50.6 mph N/A   Unknown
7:00 AM 22.6 °F 3.2 °F 18.7 °F 85% 29.99 in - NNW 38.0 mph 46.0 mph N/A   Unknown
8:00 AM 23 °F - 20 °F 82% 30.04 in - NNW 33.4 mph - -  
8:00 AM 23.2 °F 4.9 °F 19.8 °F 87% 30.04 in - NNW 33.4 mph 41.4 mph N/A   Unknown
9:00 AM 22.8 °F 4.4 °F 18.7 °F 84% 30.06 in - NNW 33.4 mph 42.6 mph N/A   Unknown
10:00 AM 23.2 °F 4.9 °F 18.3 °F 82% 30.10 in - NW 33.4 mph 41.4 mph N/A   Unknown
11:00 AM 25.0 °F 7.6 °F 19.4 °F 79% 30.13 in - NW 32.2 mph 40.3 mph N/A   Unknown
12:00 PM 25.7 °F 9.1 °F 18.3 °F 74% 30.14 in - NW 29.9 mph 36.8 mph N/A   Unknown
1:00 PM 27.1 °F 10.1 °F 20.3 °F 75% 30.14 in - NW 34.5 mph 41.4 mph N/A   Unknown
2:00 PM 28 °F - 19 °F 59% 30.15 in - NW 35.7 mph - -  
2:00 PM 27.7 °F 10.6 °F 19.4 °F 71% 30.15 in - NW 35.7 mph 41.4 mph N/A   Unknown
3:00 PM 29.3 °F 13.3 °F 18.0 °F 63% 30.16 in - NW 33.4 mph 39.1 mph N/A   Unknown
4:00 PM 31.1 °F 16.6 °F 20.5 °F 65% 30.19 in - NW 28.8 mph 35.7 mph N/A   Unknown
5:00 PM 31.5 °F 17.4 °F 19.4 °F 61% 30.20 in - NW 27.6 mph 34.5 mph N/A   Unknown
6:00 PM 31.1 °F 16.2 °F 19.0 °F 61% 30.22 in - NW 31.1 mph - N/A   Unknown
7:00 PM 31.3 °F 16.7 °F 19.9 °F 63% 30.26 in - WNW 29.9 mph - N/A   Unknown
8:00 PM 31 °F - 19 °F 49% 30.28 in - WNW 31.1 mph - -  
8:00 PM 31.1 °F 16.2 °F 19.0 °F 61% 30.28 in - WNW 31.1 mph - N/A   Unknown
9:00 PM 31.6 °F 17.6 °F 18.7 °F 59% 30.31 in - NW 27.6 mph 34.5 mph N/A   Unknown
10:00 PM 31.3 °F 17.1 °F 19.9 °F 63% 30.31 in - WNW 27.6 mph - N/A   Unknown
11:00 PM 31.8 °F 18.4 °F 18.5 °F 58% 30.31 in - NW 25.3 mph - N/A   Unknown